Volver al catálogo

STARLINK-36686

ActivoComunicacionesVLEO
NORAD 68719·PAYLOAD·🇺🇸 United States

Lanzado Apr 14, 2026 desde Cape Canaveral Space Force Station

Loading…

Próximos Pases (próximas 24 horas)

TLE

ActualizadoSource: CelesTrak SupGP

Época: Sep 14, 2026, 22:25 UTC

1 68719C 26081W   26257.93451389  .00023721  00000+0  70069-3 0  2578
2 68719  53.1587 231.5890 0001411  94.0374 351.3819 15.34384893    13

Sigue STARLINK-36686 en tiempo real con AllMySat

Download on the App Store